GFSNGP_con_mlcape_057.txt.gz
CAPE
0 0 0 0 0 0 0 0 0 0 0 0 0 0 0 0 0 0 0 0 31 139 195 289 421 595 698 593 434 393 425 464 493 511 539 600 703 694 697 672 577 622 614 603
0 0 0 0 0 0 0 0 0 0 0 0 0 0 0 0 0 0 0 0 0 151 213 265 443 382 563 598 493 497 546 613 662 687 698 737 777 821 820 691 633 755 755 759
0 0 0 0 0 0 0 0 0 0 0 0 0 0 0 0 0 0 0 0 7 4 169 261 393 448 417 529 577 532 572 639 778 841 815 826 875 953 1015 932 956 834 826 839
0 0 0 0 0 0 0 0 0 0 0 0 3 0 0 0 0 0 0 0 2 52 25 438 368 508 478 605 655 594 567 586 787 900 894 931 949 947 946 1086 1172 1253 1227 1250
1 5 1 76 0 0 0 0 0 0 0 0 0 0 0 0 0 0 0 0 5 96 125 0 481 558 647 780 842 765 644 686 773 925 1001 1107 1093 1091 1075 1037 1018 1064 1309 1458
0 0 3 3 2 0 2 0 0 0 0 0 0 0 0 0 0 0 0 1 290 778 294 4 551 701 773 898 980 876 875 898 984 976 1002 1121 1234 1299 1396 1403 1357 1394 1317 1439
4 5 0 2 1 0 3 0 0 0 0 0 0 0 0 0 0 0 1 5 996 488 542 631 738 794 865 993 960 1099 1258 1256 1269 1271 1295 1327 1414 1587 1754 1799 1857 1986 1936 1957
0 2 0 1 0 3 0 0 0 0 0 0 0 0 0 0 0 0 0 0 288 993 645 829 706 761 856 983 1235 1376 1464 1429 1480 1458 1438 1655 1701 1825 1897 2033 2096 2188 2286 2430
0 0 1 7 4 7 3 0 0 0 0 0 0 0 0 0 0 0 0 0 0 259 599 1211 1106 1031 1058 1213 1311 1260 1372 1461 1576 1770 1842 1974 2106 2179 2226 2340 2327 2491 2591 2621
0 2 4 7 3 11 8 0 0 0 0 0 0 0 0 0 0 0 0 0 0 0 0 209 868 1127 1474 1559 1264 1226 1336 1566 1819 1987 2119 2294 2429 2459 2500 2608 2632 2692 2872 2933
0 3 3 0 12 9 8 2 0 0 0 0 0 0 0 0 0 0 0 0 0 0 0 0 5 245 729 1087 2167 1886 1597 1565 1666 1851 1999 2392 2435 2463 2604 2741 2765 2954 2960 3105
0 5 8 3 3 4 3 6 5 2 0 0 1 0 0 0 0 0 0 0 0 0 0 0 0 0 1 169 905 1247 1721 2076 1963 2586 1997 2146 2246 1342 490 751 893 1363 1906 2490
3 6 5 5 4 5 4 3 2 2 2 3 1 1 0 0 0 0 0 0 0 0 0 0 0 0 0 0 32 509 669 453 381 901 2212 2439 1880 1975 1869 711 356 638 927 1262
6 1 4 6 6 5 4 3 2 2 3 3 1 0 0 0 0 0 0 0 0 0 0 0 0 0 0 0 0 0 389 108 163 0 1044 2276 2196 2282 2328 2543 2418 2112 319 498
20 18 2 2 4 3 0 0 0 3 4 2 3 0 0 0 0 0 1 0 0 0 0 0 0 0 0 0 0 0 3 541 1051 1268 1567 1857 2246 2304 2443 2681 2771 2513 1244 530
0 0 1 2 2 2 3 3 3 4 1 2 2 3 2 0 0 6 6 4 1 1 3 0 0 0 1 0 0 0 0 1 183 922 1239 1661 2086 1906 1826 2013 2164 2091 1862 1568
0 0 0 2 3 3 3 3 3 3 4 3 2 2 1 12 4 2 5 4 3 3 6 3 3 1 2 0 0 0 0 0 0 526 942 944 1225 1534 1447 1347 1595 1660 1512 601
8 0 0 1 0 0 6 5 1 2 3 4 3 2 2 1 3 3 4 5 4 5 4 4 4 2 1 2 1 0 0 0 0 43 665 782 773 1183 1124 997 962 962 465 0
32 11 0 0 0 0 0 1 3 0 1 2 1 2 2 3 2 3 3 3 3 3 3 3 4 3 1 0 1 1 0 0 0 0 130 553 633 892 1011 865 715 573 97 0
36 42 30 6 0 0 0 0 0 0 0 0 0 0 0 1 1 2 3 2 3 2 1 1 1 1 3 4 2 1 1 2 2 0 73 326 513 660 357 76 192 70 1 0
4 45 47 55 53 35 38 9 0 0 0 1 0 0 0 1 2 0 1 1 2 1 3 2 2 0 1 3 1 4 4 3 0 0 1 2 2 3 4 3 3 5 2 2
3 27 38 4 38 33 6 11 11 0 0 0 0 0 0 0 0 0 0 1 1 2 4 2 3 5 3 3 3 5 7 7 7 6 5 9 9 9 8 7 7 7 5 5
9 17 63 30 25 0 0 0 0 13 4 0 0 0 0 0 9 7 3 0 0 2 2 4 4 4 5 3 2 2 3 5 6 6 6 7 7 7 7 7 7 5 5 6
0 0 12 4 0 0 0 0 0 0 0 0 0 0 0 1 2 10 25 6 0 0 2 2 2 2 1 2 3 2 2 2 2 2 2 2 2 3 3 4 4 4 3 2
0 0 0 0 0 0 0 0 0 0 0 0 0 0 0 0 5 14 14 14 4 2 0 0 0 3 3 2 1 2 3 3 2 3 2 2 2 2 2 2 2 2 1 1
0 0 0 0 0 0 0 0 0 0 0 0 0 0 0 0 0 12 4 4 6 5 4 3 2 0 0 1 0 0 0 0 0 1 1 1 1 1 1 0 0 0 0 0
0 0 0 0 0 0 0 0 0 0 0 0 0 0 0 0 0 0 1 5 10 7 0 0 0 0 0 0 0 0 0 0 0 0 0 0 3 3 1 1 1 0 0 0

GFSNGP_con_mlcape_060.txt.gz
CAPE
0 0 0 0 0 0 0 0 3 5 12 23 0 0 0 0 0 0 0 0 57 312 566 934 1098 1259 1196 898 811 699 937 736 903 1145 1078 1071 1244 1412 1441 1524 1586 1650 1518 1384
0 0 0 0 0 0 0 0 0 0 0 13 5 0 0 0 0 0 3 18 0 154 399 765 1034 1337 1485 1362 1145 1012 1213 1124 1159 1416 1356 1367 1444 1580 1675 1636 1633 1703 1594 1492
3 0 0 0 0 0 0 0 0 0 0 0 2 0 0 0 0 0 0 15 81 135 130 341 757 1049 1371 1561 1386 1288 1417 1397 1423 1626 1723 1671 1632 1709 1719 1671 1757 1818 1743 1617
9 14 0 0 0 7 0 0 0 0 0 0 0 25 0 0 0 0 0 0 26 71 148 191 384 538 1098 1274 1557 1549 1634 1625 1661 1780 1812 1942 1983 1965 1946 1884 1902 1880 1805 1840
14 12 0 2 25 5 6 0 28 0 0 0 0 89 148 0 0 0 1 52 128 195 258 350 375 478 816 1083 1427 1488 1678 1739 1800 1931 1883 1910 2003 2060 2054 2033 2060 2028 1943 1989
11 9 5 57 0 0 0 41 0 0 0 0 0 0 10 0 0 0 30 122 265 505 872 944 884 424 695 1087 1216 1588 1646 1752 1916 2021 2045 2011 2085 2116 2153 2068 2091 2051 2076 2216
18 17 5 1 0 0 38 24 2 2 0 0 3 0 0 0 0 0 0 8 340 1220 1504 1314 1219 450 913 1176 1233 1579 1483 1462 1756 1936 2114 2120 2242 2257 2254 2123 1999 2122 2061 2165
13 12 2 1 0 0 0 1 1 1 1 0 0 0 0 0 0 0 0 0 182 1518 1467 1100 633 410 1384 1508 1525 1581 1583 1566 1911 1958 1849 1957 2406 2458 2414 2440 2471 2593 2518 2478
19 3 4 2 5 2 0 5 9 3 8 1 0 0 0 0 0 0 0 0 0 261 1529 1658 1212 1065 1490 1747 1705 1844 1855 2014 2087 2147 2121 2098 2349 2580 2544 2659 2495 2576 2622 2661
0 1 1 5 6 25 16 9 20 4 9 1 1 0 0 0 0 0 0 0 0 0 0 733 1565 1798 1655 1768 1863 1990 2169 2274 2327 2439 2429 2245 2522 2654 2574 2558 2592 2569 2731 2799
0 2 5 8 6 11 14 31 19 15 15 6 5 1 0 0 0 0 0 0 0 0 0 0 42 375 1422 2104 1991 2139 2293 2430 2564 2634 2498 2720 2688 2579 2777 2748 2607 2849 2833 3011
1 5 6 7 6 4 2 3 2 1 1 0 1 1 0 0 0 0 0 0 0 0 0 0 0 0 3 591 2277 2090 2142 2166 2266 2388 2755 2760 2834 2593 1081 1158 1235 1656 2132 2445
4 11 4 7 12 15 2 8 8 4 3 0 0 0 0 0 0 0 0 0 0 0 0 0 0 0 0 0 781 1732 1993 2365 2601 2867 2503 2731 2870 2982 2564 1462 1288 1110 1269 1895
12 6 5 5 7 17 11 10 6 4 4 4 4 3 0 0 0 1 7 1 1 2 1 0 2 0 0 0 0 615 298 339 368 905 1312 744 914 1361 2199 2643 2434 2349 633 1075
12 11 9 9 13 9 11 11 3 4 5 5 5 5 2 0 6 15 14 7 8 7 3 0 0 0 1 0 0 0 418 396 849 1161 1358 933 393 139 283 245 845 1892 2833 433
18 12 3 0 3 6 3 6 5 4 4 3 3 3 3 4 2 5 12 13 4 4 6 4 1 0 0 0 0 0 0 0 177 1057 230 561 1686 1668 1738 1567 1855 2107 2752 2947
13 15 10 4 1 2 5 3 3 5 5 3 2 3 3 4 4 3 4 5 4 6 7 6 6 3 1 1 0 0 0 0 0 581 897 1180 1793 1689 2009 2110 2136 2344 2770 2034
25 30 25 23 14 7 5 7 1 0 1 2 2 3 2 3 4 4 4 4 5 4 4 4 5 3 3 0 2 0 0 0 2 148 665 690 509 493 924 1493 1887 2439 2433 587
22 32 25 25 29 24 12 9 6 6 0 0 0 2 2 3 3 4 4 3 3 3 3 4 4 4 4 4 0 0 0 0 0 0 49 293 624 427 530 748 879 1178 1208 699
28 22 20 22 24 25 24 17 12 7 10 17 3 0 1 1 2 2 3 2 3 4 4 6 3 4 3 3 0 0 3 1 0 0 25 72 229 288 529 485 475 766 687 661
10 28 25 14 16 11 9 8 8 15 13 4 11 8 14 6 0 3 2 2 3 4 4 3 3 4 4 1 1 3 1 3 7 8 3 1 0 0 0 1 1 0 0 0
14 17 31 16 4 1 1 2 13 22 16 13 5 5 7 4 8 1 1 2 3 6 3 4 5 9 5 3 2 3 4 6 8 10 10 10 10 15 15 12 6 6 2 2
26 24 26 28 0 0 1 0 1 2 3 6 8 11 10 8 9 9 6 0 1 3 5 4 4 4 4 3 4 2 2 3 3 3 4 5 6 7 8 8 7 7 6 5
40 21 18 20 4 5 0 0 0 1 2 3 4 8 7 4 6 8 8 9 1 0 3 2 1 1 1 1 1 2 1 2 2 2 2 1 3 3 4 5 6 4 4 3
45 40 30 23 21 16 1 0 3 1 4 0 2 5 6 11 5 10 12 7 0 4 8 3 2 1 0 0 0 1 1 2 1 1 2 2 2 2 2 3 2 1 0 0
51 25 30 9 3 12 16 17 7 2 8 6 9 7 12 19 10 6 5 7 4 3 5 3 5 2 1 0 0 0 0 0 0 0 1 1 1 1 1 1 2 2 2 2
18 3 18 9 19 21 10 0 10 4 0 13 11 13 19 14 14 15 20 9 7 14 9 5 2 0 0 0 0 0 0 0 0 0 4 2 1 2 1 1 1 1 1 1

GFSNGP_con_mlcape_063.txt.gz
CAPE
0 0 0 0 0 7 14 43 29 2 5 13 1 0 18 2 8 15 20 37 70 103 377 1153 1307 1652 1528 1082 968 784 926 853 1104 1516 1493 1475 1298 1709 1833 2103 2239 2393 2425 2322
7 0 0 0 0 0 0 0 0 0 0 0 2 0 13 0 14 99 54 3 0 138 443 735 1114 1877 1786 1516 1282 1023 1168 956 1007 1504 1648 1606 1523 1715 2006 2147 2310 2502 2449 2520
22 23 9 0 0 0 0 0 0 0 0 0 0 1 51 88 156 18 2 9 34 79 241 547 998 1440 1665 1827 1524 1361 1496 1321 1257 1526 1699 1740 1729 1852 2059 2272 2497 2650 2614 2639
36 26 29 0 0 0 1 0 0 0 0 0 0 0 0 180 55 34 65 72 82 115 129 272 565 968 1422 1728 1848 1810 1578 2096 1615 1860 2048 2093 2097 2104 2281 2467 2455 2601 2692 2732
27 14 5 8 142 137 107 34 0 2 0 0 0 0 0 81 16 37 165 289 315 299 269 232 264 431 919 1442 2162 1982 2308 1892 2247 2122 2264 2441 2397 2468 2582 2683 2710 2639 2877 2902
20 20 11 15 103 37 88 10 246 72 70 73 29 16 8 14 0 0 0 104 274 525 693 740 725 615 517 1095 1578 2226 2420 2348 2373 2377 2613 2749 2766 2736 2830 2958 2885 2474 2639 2990
9 18 26 9 65 7 37 27 7 8 6 70 53 128 8 0 0 0 0 0 0 273 1557 1690 1504 1056 810 834 1466 2067 2315 2446 2717 2655 2766 2969 3051 3123 3151 3093 2489 2920 2817 2895
25 35 19 249 86 1 28 0 4 1 0 0 0 0 0 0 0 0 0 0 0 7 846 2687 1931 1660 1743 1128 1775 1946 2175 2345 2643 2878 2676 2768 3092 3242 3279 3235 3044 3231 2993 3160
58 38 160 160 43 20 10 6 0 13 0 2 0 2 0 0 0 0 0 0 0 0 2 227 1604 1679 1936 1672 2277 2105 2274 2407 2579 2816 2970 2748 3088 3284 3102 3119 2657 2664 2762 2475
2 21 1 1 6 0 3 14 0 13 9 5 8 8 0 0 0 0 0 0 0 1 2 0 0 264 1210 2441 2287 2486 2468 2693 2688 2784 2895 2834 2863 3021 2810 2610 2740 2540 2550 2528
0 0 0 0 8 2 2 4 7 10 5 3 2 5 4 1 0 1 7 2 0 3 4 3 0 1 0 527 1907 2244 2592 2608 2721 2621 2619 2784 2745 2713 2613 2478 2283 2262 1762 1659
0 4 4 6 5 2 2 4 2 0 0 0 0 2 0 7 1 7 10 6 0 0 0 0 0 1 0 1 475 2179 2419 2580 2561 2565 2704 2618 2691 2325 1186 1676 1342 1396 1346 1841
4 9 5 5 7 6 3 10 8 2 2 2 4 4 1 1 11 10 0 0 1 1 0 0 0 0 0 0 8 1057 2493 2678 2732 2559 2737 2884 2790 2885 2748 1362 965 1371 1484 1584
0 0 0 3 6 8 13 10 13 3 2 3 4 6 3 0 8 14 4 7 0 0 0 0 0 0 0 0 0 83 872 1486 2483 2690 3021 2943 3136 3122 3027 2832 2661 2537 1389 1189
1 2 7 10 13 6 11 10 14 5 4 4 4 6 3 5 4 5 7 2 1 1 1 1 0 0 0 0 0 0 78 306 588 1106 1996 2847 2689 2280 2435 2954 2637 2061 667 286
8 8 4 0 4 11 7 6 4 6 3 2 3 2 4 2 2 2 1 2 1 2 5 5 5 2 0 0 0 0 0 5 203 1066 1182 810 477 426 737 1132 1010 699 359 385
6 7 17 11 0 0 8 14 6 2 3 4 3 1 2 5 2 2 3 3 2 4 4 4 3 3 0 1 0 0 0 0 0 189 574 231 162 171 1143 983 1311 1181 632 827
23 19 30 23 7 2 11 5 11 7 2 1 2 1 1 2 3 2 2 3 2 3 3 3 0 3 5 1 0 0 0 0 0 0 85 1037 1239 1077 203 137 737 1630 2203 789
33 6 13 10 14 18 11 11 12 8 4 0 0 0 1 0 3 3 2 3 3 3 3 2 1 2 0 1 0 0 0 0 0 0 0 1 539 518 540 845 856 903 1642 1684
21 25 17 8 8 18 11 9 21 18 2 9 24 9 1 1 0 1 4 2 4 4 4 5 4 3 2 1 0 0 0 0 0 0 0 0 0 13 285 36 126 101 319 664
21 40 34 12 11 16 15 12 19 15 18 3 1 12 16 10 0 1 1 3 7 8 5 3 5 5 3 1 1 2 1 1 4 1 0 0 0 0 0 0 0 0 0 0
30 19 40 19 18 16 14 15 15 16 16 24 23 25 15 14 2 0 0 2 0 0 3 4 5 7 4 2 1 3 4 5 7 7 10 11 13 11 9 11 13 12 3 0
27 19 21 16 23 15 20 14 17 17 15 18 18 17 26 28 8 10 4 1 0 0 2 1 3 3 0 1 2 2 2 3 3 4 4 6 7 7 9 9 9 7 7 7
58 23 15 30 24 14 24 27 21 17 17 11 18 18 4 3 7 3 5 2 0 0 0 0 0 0 0 0 0 0 1 2 2 2 3 2 3 3 4 4 4 3 3 2
62 40 23 11 30 18 15 15 8 11 12 5 8 2 2 8 9 10 9 0 0 1 1 0 0 1 0 0 0 0 0 1 1 1 1 1 2 2 2 2 2 2 2 1
94 13 22 7 0 9 13 9 9 2 7 26 16 20 15 18 9 9 5 6 3 1 2 0 0 0 0 0 0 0 0 0 0 2 6 6 3 2 1 1 1 1 1 1
45 4 21 11 23 14 1 10 11 11 8 16 28 28 36 20 21 25 8 18 10 6 6 0 0 0 0 0 0 0 0 0 0 0 0 4 6 8 7 6 5 4 2 1

GFSNGP_con_mlcape_069.txt.gz
CAPE
0 0 0 0 0 0 0 0 0 0 0 0 0 0 0 7 196 245 345 217 215 35 46 112 110 422 414 731 666 1149 1465 1424 1305 1108 1058 1139 555 320 3 853 524 1272 1340 1310
0 0 0 0 0 0 0 0 0 0 0 0 0 0 0 0 4 24 71 174 242 118 66 371 234 126 210 519 866 815 1445 1681 1575 1397 1270 1206 1214 976 401 129 1484 892 858 1310
0 0 0 0 0 0 0 0 0 0 0 0 0 0 0 5 25 31 0 2 1 5 143 74 9 14 0 88 827 980 1014 1548 1615 1582 1496 1349 1327 1131 1072 579 448 1525 1626 1441
0 6 0 0 0 0 0 0 0 0 0 0 0 0 0 15 0 3 0 0 21 0 0 84 16 0 153 423 603 776 982 1193 1492 1559 1522 1489 1429 1375 1194 1206 902 732 972 1507
13 12 0 0 0 11 13 0 10 0 0 0 0 0 0 0 0 0 0 0 0 11 0 2 119 155 16 24 377 360 873 1135 1290 1466 1501 1533 1382 1436 1419 1398 1505 1250 1482 1708
4 7 0 3 107 80 33 0 0 0 0 0 0 0 0 0 0 0 0 0 0 0 0 0 0 0 452 0 0 137 719 1444 1276 1293 1467 1364 1496 1415 1587 1399 1313 1664 1511 1715
10 12 0 56 103 68 4 0 0 0 0 0 0 0 0 0 0 0 0 0 0 0 0 0 0 0 3 108 179 685 972 1610 1480 1367 1381 1416 1433 1542 1476 1585 1458 1351 1690 1713
0 5 2 2 46 54 2 0 0 0 0 0 0 0 0 0 0 0 0 0 0 0 0 0 0 2 1 0 0 25 624 1779 1936 1777 1482 1650 1527 1665 1679 1644 1658 1625 1594 1854
1 19 2 0 0 0 0 0 0 0 3 2 0 0 0 0 0 0 0 0 0 0 0 0 0 0 0 4 4 0 291 1267 1969 2224 1878 1752 1840 1772 1859 1880 1849 1818 1911 1924
0 0 0 2 1 1 0 0 0 1 2 2 7 0 5 0 0 0 0 0 0 0 0 0 0 0 0 1 4 4 252 1182 2128 2218 2531 2063 2298 2112 2143 2136 2177 2118 2149 2228
0 0 0 1 0 2 0 3 2 3 8 4 0 0 2 8 0 0 0 8 0 1 0 0 0 0 0 0 3 2 14 911 2373 2359 2609 2651 2619 2644 2452 2545 2508 2467 2435 2434
0 1 2 0 0 3 0 3 2 8 3 2 1 1 1 2 0 3 1 7 3 0 0 0 0 0 0 0 1 6 3 774 2192 2665 2928 2919 2693 2117 1229 1970 2581 2554 2526 2599
0 0 0 0 0 4 3 4 4 8 4 1 0 2 2 3 1 3 14 1 0 1 1 0 0 0 0 0 0 0 4 4 640 2392 2941 2967 2949 2762 2259 1059 770 1343 1978 2514
0 0 0 0 0 2 4 2 3 1 1 10 2 0 0 3 1 1 1 2 0 0 1 0 0 0 1 1 0 0 0 3 39 1014 1888 2438 2795 2862 2676 1972 2045 2027 726 1102
0 2 0 0 0 4 2 2 1 2 1 2 1 1 2 2 2 2 1 0 0 0 0 0 0 0 0 0 0 0 0 0 3 175 1055 1614 2279 2610 2515 2091 1876 1637 521 427
0 0 0 0 5 4 0 4 3 3 2 3 2 1 2 2 2 1 1 1 0 1 0 1 1 0 1 0 0 0 0 1 3 26 468 870 1324 2091 2629 2385 2078 1272 1150 1133
1 0 0 0 0 3 3 10 0 5 5 4 3 1 1 4 2 1 1 1 2 0 0 1 1 0 0 0 2 3 3 1 1 4 1 3 136 657 1060 1364 1605 1396 1008 472
35 28 23 3 3 0 0 6 0 0 0 1 2 1 2 0 1 4 1 0 0 1 0 0 1 0 0 0 1 3 1 2 4 5 6 2 1 0 66 189 223 417 451 0
35 23 14 12 0 0 1 6 0 0 0 0 0 0 2 5 3 2 0 1 1 2 2 1 3 1 1 2 0 1 0 0 5 6 6 7 8 3 1 0 0 6 23 3
13 17 30 23 0 0 13 0 0 3 1 0 0 0 0 0 0 0 0 3 6 4 5 2 1 1 1 1 1 1 4 3 3 4 8 8 8 8 5 7 9 6 7 5
30 8 12 2 0 0 0 0 0 7 2 2 2 0 0 0 0 0 0 4 3 6 1 2 1 0 0 0 1 3 4 6 8 6 8 7 1 8 11 10 4 4 5 8
27 11 10 2 5 30 1 0 1 19 2 1 3 0 0 9 5 0 1 2 7 6 3 3 4 0 0 0 0 1 3 4 5 4 7 9 9 7 8 9 8 7 13 7
5 0 67 37 8 21 36 1 0 2 0 0 0 0 0 0 0 0 0 0 0 1 7 5 17 3 0 0 0 0 0 1 2 3 2 3 5 7 8 9 8 7 7 6
40 5 12 16 3 1 41 26 1 32 0 0 1 0 0 0 0 0 0 0 0 0 0 0 0 0 0 0 0 0 0 0 0 0 1 1 2 2 3 3 3 2 2 2
15 1 17 82 98 10 13 15 26 29 4 14 0 0 0 0 0 0 0 0 2 0 0 0 0 0 0 0 0 0 0 0 0 0 0 1 1 1 1 1 1 1 1 1
4 1 38 67 56 0 23 3 16 11 17 0 0 1 6 1 2 0 0 0 4 2 1 0 0 0 0 0 0 0 0 0 0 0 0 1 1 0 0 0 0 0 0 0
3 4 2 9 6 1 0 10 6 0 35 28 8 6 8 4 5 14 5 7 1 0 0 0 0 0 0 0 0 0 0 0 0 0 0 0 0 0 0 0 0 0 0 0

GFSNGP_con_mlcape_072.txt.gz
CAPE
0 0 0 0 0 0 0 0 0 0 0 0 0 0 0 10 129 130 123 139 99 56 22 2 2 0 51 249 331 641 603 613 392 599 630 235 0 22 18 138 135 278 538 1185
0 0 0 0 0 0 0 0 0 0 0 0 0 14 10 45 42 37 0 0 0 86 256 302 108 8 60 233 313 701 748 773 748 511 747 731 410 44 18 0 72 234 257 594
0 0 0 0 0 0 0 0 0 0 0 0 0 0 0 0 6 11 2 0 0 0 20 169 188 33 13 31 63 264 853 1035 1055 1005 786 807 915 593 307 123 0 169 382 617
0 0 0 0 0 0 0 1 0 0 0 0 0 0 0 0 0 0 0 0 0 0 0 1 27 3 71 30 119 159 221 816 1483 1411 1289 1086 986 1086 889 661 287 104 543 554
0 0 0 0 0 0 0 6 0 0 0 0 0 23 0 0 0 0 0 0 0 0 0 0 0 0 33 187 286 295 343 341 564 1661 1598 1422 1290 1195 1167 1051 818 465 353 920
0 0 0 0 5 45 12 25 0 0 0 0 0 0 0 0 0 0 0 0 0 0 0 0 0 0 0 52 123 23 117 282 262 362 1439 1599 1529 1409 1332 1183 1135 993 762 537
0 0 0 0 0 40 2 0 0 0 0 0 0 0 0 0 0 0 0 1 0 0 0 0 0 0 0 0 10 9 8 28 141 360 1251 1492 1581 1495 1441 1410 1251 1261 1203 1042
0 0 0 0 0 0 1 0 0 0 0 0 0 0 0 0 0 0 0 0 0 0 0 0 0 0 0 0 1 1 1 5 51 239 1250 1340 1525 1521 1355 1364 1440 1274 1307 1413
0 0 0 0 0 0 0 0 0 0 0 0 0 0 0 0 0 0 0 0 0 0 0 0 0 0 0 0 0 0 0 0 25 269 964 1391 1501 1463 1475 1377 1420 1430 1277 1203
0 0 0 0 0 0 1 1 0 0 0 1 0 0 0 0 0 0 0 0 0 0 0 0 0 0 0 0 0 2 2 1 56 333 1020 1650 1412 1423 1416 1440 1383 1374 1467 1388
0 0 0 0 0 0 2 2 1 5 0 2 1 1 0 0 0 0 0 0 1 0 0 0 0 0 0 0 0 2 0 0 44 226 856 1964 1543 1583 1547 1520 1506 1472 1516 1515
0 0 0 0 0 2 4 1 3 3 6 4 3 0 1 1 0 0 0 2 10 1 0 0 0 0 0 0 0 2 0 0 3 69 536 2000 2186 1480 769 1082 1423 1472 1539 1621
0 0 0 0 0 0 3 5 3 4 4 8 5 1 4 2 0 0 2 2 0 0 0 0 0 0 0 0 1 0 2 0 3 5 330 1762 2521 2109 2066 1104 875 1359 1511 1769
0 0 0 0 0 0 0 0 2 1 2 2 9 4 18 5 1 3 0 1 0 0 0 0 0 0 0 1 0 0 0 0 3 5 40 751 2099 2676 2205 2035 2330 2221 1190 1619
0 0 0 0 0 0 2 5 3 7 3 2 2 2 1 2 2 2 2 1 1 0 0 0 0 0 0 0 0 0 3 3 6 4 20 502 1051 2192 2427 2025 1920 1891 1285 1041
0 0 0 0 0 0 7 25 3 3 5 5 8 2 2 1 0 0 0 1 1 1 0 1 0 0 0 0 0 0 2 1 5 5 4 150 534 1321 1874 1867 1822 1573 1344 1423
0 0 0 0 0 0 14 20 7 0 7 5 8 10 4 1 5 2 1 1 0 1 1 1 0 0 0 0 0 1 1 2 4 6 3 5 1 286 1071 1822 1536 1363 1208 861
13 4 0 8 6 0 1 9 14 2 0 0 1 4 6 5 4 2 1 2 2 2 1 0 1 1 0 0 0 2 1 0 2 6 4 2 6 4 14 670 1357 1228 594 180
17 19 4 12 10 7 0 12 20 6 0 0 1 0 3 1 0 0 0 1 1 2 3 3 3 1 0 2 1 5 4 0 5 3 6 1 9 10 11 6 7 65 29 5
18 13 15 13 4 4 0 11 13 3 0 0 5 2 1 4 1 1 1 2 2 3 7 11 0 1 2 1 2 3 6 0 5 7 7 6 1 8 13 6 8 13 10 12
22 33 26 3 0 5 0 0 0 0 4 0 22 24 2 0 2 2 2 6 7 1 0 8 3 3 5 2 1 3 4 7 6 8 9 5 1 0 0 6 8 6 11 13
20 9 14 19 12 0 0 0 0 4 3 7 10 17 4 0 0 0 0 0 3 9 0 6 6 5 4 5 0 1 3 4 6 7 9 10 6 8 4 7 6 3 6 9
15 0 0 13 8 2 0 0 0 1 0 14 2 3 0 0 0 0 0 0 3 6 12 4 4 12 2 1 1 1 0 2 3 4 5 6 7 8 8 8 8 8 4 6
11 19 4 18 0 0 1 0 1 0 6 11 0 0 0 0 0 1 1 5 4 5 7 3 9 0 3 3 4 4 2 1 1 1 2 2 2 2 3 5 5 5 4 3
13 6 0 0 5 0 0 0 0 0 0 12 0 0 0 0 0 0 0 0 0 0 0 6 0 0 0 0 3 1 0 0 0 0 0 0 1 1 1 0 0 0 0 0
0 1 0 4 0 0 0 0 0 0 0 1 6 1 1 0 5 3 7 0 0 0 0 0 0 0 0 0 0 0 0 0 0 0 0 0 0 0 0 0 0 0 0 0
0 0 3 4 0 0 0 0 0 0 0 0 4 13 1 7 13 7 8 1 1 0 0 0 0 0 0 0 0 0 0 0 0 0 0 0 0 0 0 0 0 0 0 0

GFSNGP_con_mlcape_075.txt.gz
CAPE
0 0 0 0 0 0 0 0 0 0 0 0 0 0 0 0 44 62 4 17 44 46 57 46 9 0 0 33 72 158 89 184 198 180 66 0 0 0 0 0 0 0 111 699
0 0 0 0 0 0 0 0 0 0 0 0 0 0 0 0 0 0 0 0 0 0 31 223 210 124 21 0 70 233 270 214 230 252 247 75 0 0 0 0 0 0 0 85
0 0 0 0 0 0 0 0 0 0 0 0 0 0 0 0 0 0 0 0 0 0 0 6 4 15 51 42 77 241 451 379 353 298 362 401 225 0 0 0 0 0 0 0
0 0 0 0 0 0 0 0 0 0 0 0 0 0 0 0 0 0 0 0 0 0 0 0 0 0 1 88 22 136 290 503 655 642 452 467 565 410 147 4 0 0 0 0
0 0 0 0 0 0 0 0 0 0 0 0 0 0 0 0 0 0 0 0 0 0 0 0 0 0 1 35 174 124 134 191 383 932 936 733 699 714 653 343 154 70 27 0
0 0 0 0 0 0 0 0 0 0 0 0 0 25 9 0 0 0 0 0 0 0 0 0 0 0 0 2 2 0 6 75 164 525 1275 1307 1086 948 887 845 694 526 350 98
0 0 0 0 0 0 0 0 0 0 0 0 0 0 0 0 0 0 0 0 0 0 0 0 0 0 0 0 0 3 3 0 0 5 90 415 916 1259 1241 1067 1044 945 805 583
0 0 0 0 0 0 0 0 0 0 0 0 0 0 0 0 0 0 0 0 0 0 0 0 0 0 0 0 0 1 1 3 1 0 5 126 716 1175 1384 1309 1200 1159 1049 969
0 0 0 0 0 0 0 0 0 0 0 0 0 0 0 0 0 0 0 0 0 0 0 0 0 0 0 0 0 0 1 1 0 0 1 105 511 1136 1383 1401 1441 1311 1196 1134
0 0 0 0 0 0 0 0 0 0 0 1 1 0 2 0 0 0 0 0 0 0 0 0 0 0 0 0 0 0 0 0 0 0 1 91 428 1249 1351 1392 1462 1415 1363 1259
0 0 0 0 0 1 1 0 1 2 2 0 1 0 4 1 0 0 0 0 0 0 0 0 0 0 0 0 0 0 0 0 0 0 1 6 117 1086 1382 1383 1440 1451 1378 1332
0 0 0 0 0 0 0 3 5 2 4 4 6 6 7 4 5 0 0 0 0 0 2 0 0 0 0 0 0 0 0 0 0 0 0 2 65 1082 921 981 1232 1223 1205 1254
0 0 0 0 0 0 1 1 0 4 6 1 1 3 13 11 7 2 0 0 0 2 0 0 0 0 0 0 0 0 0 0 2 0 2 1 3 388 1824 1213 568 752 828 1032
0 0 0 0 0 0 6 2 3 10 12 2 3 2 9 9 0 0 0 0 3 1 0 0 0 0 0 0 0 0 0 0 2 4 5 3 3 115 782 1836 1748 1637 955 848
0 0 0 0 0 0 2 15 23 13 3 1 2 1 2 2 2 1 1 1 0 0 0 0 0 0 0 0 0 0 0 0 4 3 4 5 4 40 465 1550 2235 2158 1677 954
0 0 0 0 0 0 0 1 16 24 0 0 2 0 0 5 2 2 1 1 0 1 0 0 0 0 0 0 0 0 0 1 3 3 4 0 5 0 97 702 1803 1969 1851 1797
0 0 0 0 0 0 0 3 12 23 0 0 0 1 3 6 4 7 1 0 0 1 1 1 1 0 0 0 0 2 1 2 3 1 3 3 3 3 2 26 592 1527 1654 1347
1 1 3 0 0 9 10 2 2 17 0 0 0 1 1 3 6 8 9 7 1 1 1 2 1 1 0 0 0 1 4 4 5 5 5 4 3 4 4 0 0 525 886 548
15 18 21 10 20 14 14 0 0 5 0 0 5 3 4 3 11 10 8 4 1 5 2 2 4 1 1 0 3 1 4 4 5 7 6 5 4 3 7 9 7 3 2 2
28 25 19 16 13 13 6 0 2 0 4 0 5 12 0 3 4 7 8 10 5 1 0 6 1 1 2 1 3 2 4 4 5 6 8 7 7 6 2 7 12 12 16 12
30 38 20 13 1 1 0 0 5 1 9 6 6 1 0 0 0 1 3 4 6 0 1 13 9 1 6 2 1 2 3 5 5 6 7 7 7 6 6 4 7 11 13 10
34 35 9 6 28 6 4 1 0 1 2 8 2 0 0 0 0 0 0 0 5 16 3 4 8 11 4 1 1 1 2 3 4 5 5 6 6 6 6 6 6 4 4 5
31 8 0 0 0 2 0 0 0 22 8 11 0 0 0 0 0 0 0 2 3 16 3 0 9 0 0 0 1 1 1 1 2 3 3 3 2 3 4 4 5 6 6 7
16 0 0 0 0 0 0 0 4 11 18 13 3 5 0 0 0 0 0 0 1 5 0 0 0 0 0 0 0 1 1 2 2 2 2 2 1 2 3 3 3 2 2 3
1 0 0 0 0 0 0 0 6 2 3 1 0 1 0 0 0 0 0 0 0 0 0 0 0 0 0 0 0 0 1 2 2 2 2 1 3 2 2 2 2 2 2 2
0 0 0 0 0 0 0 0 4 0 0 8 3 1 5 1 0 0 0 0 0 0 0 0 0 0 0 0 0 0 0 0 0 3 3 3 1 2 1 2 1 2 1 1
0 0 0 0 0 0 0 0 0 0 0 7 8 0 0 0 0 0 0 0 0 0 0 0 0 0 0 0 0 0 0 0 0 1 1 0 0 0 0 0 0 1 0 0